Location: Recife
(8.0585°S, 34.8848°W)
Time: 20:55:40
(UTC-03:00)

Vanguard 1 Rocket - Pass Details

Date: 16 April 2026
Orbit: 655 x 4212 km, 34.3° (Epoch: 12 May)

Event Time Altitude Azimuth Distance (km) Brightness Sun altitude
Rises 15:15:07 0° 224° (SW) 4,596 11.3 28.5°
Reaches altitude 10° 15:17:43 10° 218° (SW) 3,950 11.0 27.9°
Maximum altitude 15:28:42 52° 142° (SE) 3,043 10.0 25.3°
Drops below altitude 10° 15:49:07 10° 71° (ENE) 6,982 11.5 20.4°
Sets 15:55:37 0° 67° (ENE) 8,291 11.8 18.8°
